Location: Waco, TX
(31.5480°N, 97.1670°W)
Time: 13:36:47
(UTC-05:00)

ISS - Pass Details

Date: 05 May 2021
Orbit: 417 x 422 km, 51.6° (Epoch: 15 May)

Event Time Altitude Azimuth Distance (km) Brightness Sun altitude
Rises 02:36:47 0° 262° (W) 2,353 - -39.1°
Reaches altitude 10° 02:39:27 10° 284° (WNW) 1,493 - -38.9°
Maximum altitude 02:41:39 16° 325° (NW) 1,170 - -38.7°
Drops below altitude 10° 02:43:52 10° 7° (N) 1,499 - -38.5°
Exits shadow 02:45:56 - 26° (NNE) 2,145 0.7 -38.3°
Sets 02:46:33 0° 29° (NNE) 2,367 1.0 -38.3°
